Location: Chemnitz
(49.5500°N, 11.5830°E)
Time: 14:50:21
(UTC+02:00)

ISS - Pass Details

Date: 27 March 2017
Orbit: 399 x 409 km, 51.6° (Epoch: 30 March)

Event Time Altitude Azimuth Distance (km) Brightness Sun altitude
Rises 21:48:44 0° 227° (SW) 2,305 0.2 -20.8°
Reaches altitude 10° 21:50:52 10° 220° (SW) 1,452 -1.0 -21.1°
Enters shadow 21:51:08 12° 218° (SW) 1,351 -1.1 -21.1°
